User: anonymous   Login
Location: Carbonear
(47.7333°N, 53.2500°W)
Time: 10:20:37
(UTC+00:00)
Language:

FO-29 - Orbit

View from above orbital plane
View from above orbital plane
View from above satellite
View from above satellite

Ground track
Ground track

The orbit data is extracted from the following two-line orbital elements,

1 24278U 96046B   22333.76853689 -.00000035  00000-0  15425-5 0  9994
2 24278  98.5140 334.6924 0349685 214.1802 143.6378 13.53125118297961
Epoch (UTC): 29 November 2022 18:26:41
Eccentricity: 0.0349685
inclination: 98.5140°
perigee height: 800 km
apogee height: 1321 km
right ascension of ascending node: 334.6924°
argument of perigee: 214.1802°
revolutions per day: 13.53125118
mean anomaly at epoch: 143.6378°
orbit number at epoch: 29796

The dashed part of the orbit path shows where the satellite is in the earth's shadow,  

DLR